Dewpoint
27 28 28 28 28 28 28 28 27 28 28 27 26 26 27 27 28 30 31 31 30 30 30 30 30 30 30 30 31 31 31 31 32 32 31 31 31 31 31 31 31 31 32 32 32 32 32 32 33 33 33 32 31 31 30 30 29 29 30 30 30 30 29 29 28 28 28 28 28
27 27 27 27 28 29 29 28 28 28 28 28 28 27 28 29 30 31 30 30 30 30 31 31 31 30 30 30 31 31 31 31 31 31 31 31 31 31 31 31 32 32 32 32 32 33 33 32 32 32 32 32 32 31 30 29 28 29 30 30 30 29 29 29 28 28 27 27 27
27 27 27 27 28 28 28 28 27 27 27 28 28 29 29 30 31 30 29 29 30 30 31 30 30 30 30 30 30 31 30 31 31 31 31 32 32 31 31 32 32 31 31 31 32 32 32 31 31 31 31 32 31 31 30 29 28 29 29 29 29 30 29 29 28 27 27 28 26
27 27 27 27 27 27 27 27 27 27 27 28 28 29 29 30 29 28 28 28 29 29 29 29 29 29 30 30 30 30 30 30 31 31 31 31 31 31 31 32 31 31 31 31 30 30 30 30 31 31 31 30 30 30 30 30 28 29 29 29 30 29 29 29 28 29 29 28 26
27 27 28 28 28 28 28 28 27 28 28 28 28 28 28 27 26 26 26 27 27 27 27 26 27 28 29 30 30 30 30 31 31 31 31 31 31 31 31 31 31 30 30 30 30 29 29 30 30 31 30 30 30 30 29 28 28 29 29 30 30 29 29 28 29 29 29 28 27
27 27 28 29 29 29 29 29 28 28 28 28 28 27 27 27 26 26 26 26 26 27 27 26 26 27 28 29 29 30 30 31 31 31 31 30 31 31 31 30 30 30 29 29 29 28 28 29 29 29 30 30 29 28 27 27 27 28 28 29 29 29 28 28 28 28 28 27 27
25 26 26 27 28 28 28 29 29 29 29 28 28 27 26 26 26 26 26 26 27 27 27 26 26 27 28 28 28 29 30 31 31 31 31 31 31 30 30 29 28 28 28 28 28 28 28 28 28 29 29 29 28 27 27 27 27 26 26 27 28 28 27 26 27 28 27 26 25
25 25 25 25 25 26 26 28 28 28 28 28 26 26 26 25 25 26 27 27 28 28 27 26 26 27 27 27 27 28 29 30 31 31 31 31 30 29 28 28 27 27 27 27 27 27 27 28 29 28 28 28 28 27 27 26 26 25 25 25 27 27 27 26 25 26 26 25 25
25 25 25 25 25 25 26 26 27 28 28 27 25 26 26 26 25 26 27 27 28 28 27 26 26 26 26 26 26 27 28 28 30 30 30 30 29 28 27 27 27 27 26 26 26 27 28 29 29 28 28 28 28 27 27 26 25 25 25 25 27 28 28 26 25 24 25 24 25
25 25 25 25 26 26 26 27 27 27 27 26 26 26 27 26 26 27 27 27 28 28 27 26 26 26 26 25 26 26 27 27 28 29 29 28 27 27 27 27 27 26 26 25 26 27 28 27 26 27 27 28 27 27 26 25 25 25 25 26 27 27 26 25 24 23 23 24 25
25 25 25 25 26 25 25 27 27 26 26 26 26 26 26 26 27 27 27 28 28 27 27 26 25 25 25 25 25 26 27 27 27 27 27 27 27 27 27 27 27 26 25 25 26 26 26 25 25 24 25 27 27 26 25 25 25 25 25 26 25 25 24 23 22 22 23 23 23
24 24 24 24 25 25 25 26 26 25 25 25 25 26 26 26 26 27 27 27 27 27 26 25 25 25 25 25 26 26 27 27 27 27 27 27 27 27 27 27 26 25 25 25 26 25 25 25 24 24 24 25 26 26 25 25 25 25 25 24 23 23 24 24 23 22 21 21 23
23 23 23 23 23 24 24 25 25 25 25 25 25 25 26 26 26 27 27 27 27 26 26 25 24 24 25 25 26 27 27 27 27 27 27 27 27 27 27 26 25 25 24 25 25 25 25 25 24 24 24 24 25 25 25 25 25 25 25 24 24 24 24 25 23 22 21 21 23
22 22 22 22 23 23 23 24 24 25 25 25 25 25 26 26 26 27 26 26 26 25 25 24 24 25 25 26 27 27 28 27 27 27 27 27 26 26 26 25 25 24 24 25 25 25 25 25 25 25 25 25 25 25 25 25 25 25 25 25 25 25 25 25 23 22 22 23 23
22 21 21 22 22 22 22 23 23 24 25 25 25 25 26 26 26 26 26 25 25 25 24 24 24 25 26 27 27 27 28 27 27 27 27 26 25 25 25 25 24 24 24 25 25 25 25 25 25 25 25 25 25 25 25 25 25 25 25 25 25 25 25 24 23 23 23 23 22
21 21 21 22 22 22 22 22 23 23 24 25 25 25 26 26 26 26 25 25 24 24 24 24 25 25 27 28 28 28 28 27 27 27 26 25 25 25 24 24 24 24 24 24 25 25 25 25 25 25 25 25 25 25 24 25 25 25 25 25 25 25 25 24 24 23 22 22 21
21 21 21 21 22 21 21 22 22 23 23 24 24 25 25 25 25 25 25 24 23 23 24 24 25 26 27 28 28 28 27 27 27 27 26 25 25 25 25 25 25 25 25 24 24 25 25 25 25 25 25 25 25 25 25 25 25 25 25 25 25 25 24 23 23 22 21 21 21
21 21 21 21 21 21 21 21 22 22 23 24 24 24 25 25 25 25 25 24 24 24 24 24 25 27 28 28 28 28 28 27 27 27 26 26 25 25 25 25 25 25 25 25 25 25 25 25 25 25 25 26 26 25 25 25 25 25 25 25 24 24 23 22 21 21 21 21 21
21 21 21 21 21 21 21 22 22 22 23 23 23 24 24 25 25 24 24 23 24 25 25 25 26 27 28 28 28 28 28 28 27 27 27 26 26 25 25 25 25 25 25 25 25 25 25 25 25 26 26 27 26 26 25 25 24 24 23 23 23 23 22 22 21 21 21 21 21
22 21 21 21 21 21 21 22 22 22 23 23 23 24 24 24 24 24 24 23 24 25 25 25 26 27 28 28 28 28 28 28 28 27 27 26 26 25 25 25 25 25 25 25 26 26 27 27 27 27 27 26 25 24 23 23 23 22 22 22 22 22 22 21 21 20 20 19 19
22 22 21 21 21 21 21 22 22 22 23 23 23 23 24 24 24 24 23 23 25 25 25 25 26 27 27 28 28 28 28 28 28 27 27 26 26 25 25 25 25 25 26 27 27 28 28 27 27 27 26 25 23 22 22 21 21 21 21 21 21 20 20 19 19 18 18 17 17
22 22 22 21 21 21 21 22 22 23 23 23 23 23 23 24 23 24 24 24 25 25 25 26 27 27 27 28 28 28 28 28 27 27 27 26 26 26 26 26 26 27 27 28 28 28 27 27 26 25 24 23 22 21 21 21 20 20 19 19 19 19 18 17 16 16 16 16 16
22 22 22 22 21 22 22 22 22 23 23 23 24 23 23 24 24 24 24 25 25 25 26 27 27 27 27 28 28 28 27 27 27 27 26 26 26 26 26 26 27 27 27 27 27 26 25 25 24 23 22 21 21 21 20 20 19 19 18 19 18 17 17 16 16 16 16 16 16
22 22 22 22 22 22 22 22 22 23 23 23 24 24 24 24 24 24 25 25 26 26 26 27 27 28 28 28 28 28 27 27 27 26 26 26 26 26 26 26 26 27 27 26 26 25 25 24 23 22 21 21 20 20 20 20 19 19 18 18 17 16 16 16 15 16 16 16 16
22 22 22 22 21 21 21 22 22 22 23 23 24 24 24 24 24 25 25 26 26 27 27 27 28 28 28 28 27 27 27 26 26 26 26 26 26 26 26 26 26 26 27 27 29 29 27 25 23 21 20 20 20 20 20 20 19 19 18 18 17 16 16 15 15 16 16 15 15
22 22 22 21 21 21 21 21 22 22 23 23 24 24 24 25 25 25 26 26 27 27 27 28 28 28 28 27 27 27 26 26 26 26 26 25 25 25 25 25 26 27 28 29 31 31 30 28 25 22 20 19 19 19 19 19 19 19 18 17 17 16 16 15 15 15 15 16 15
22 21 21 21 21 21 21 21 22 22 23 23 24 24 25 25 25 25 26 26 27 27 27 26 26 27 27 27 26 26 26 26 26 26 26 25 25 25 25 25 26 27 29 31 32 31 30 29 27 25 21 18 18 18 18 18 18 18 17 16 15 15 15 15 15 15 15 15 14
21 21 21 21 21 21 21 22 22 22 23 23 24 25 25 25 25 25 26 26 26 25 25 25 25 26 27 27 26 26 26 26 26 26 26 25 25 24 25 25 25 27 29 32 32 31 30 30 28 26 23 18 17 17 17 17 17 16 16 15 14 14 14 14 14 14 14 14 14
21 21 21 21 21 22 22 21 22 22 23 24 24 25 25 25 25 25 25 25 25 24 25 25 26 27 28 27 27 26 26 26 26 26 25 25 24 24 24 25 25 28 30 33 32 31 30 30 29 28 25 22 18 17 17 16 16 15 14 14 13 13 13 13 13 13 13 13 13
21 21 21 21 22 22 22 22 22 23 23 24 25 25 25 25 25 25 24 24 24 25 26 28 29 29 28 28 28 27 27 26 26 25 25 24 24 24 24 25 25 27 30 32 31 31 31 30 30 29 28 25 20 17 16 15 15 14 14 13 13 12 12 12 12 12 12 12 12
21 21 21 22 23 23 22 22 23 24 24 25 25 25 25 25 24 24 24 25 26 28 29 29 29 29 29 29 29 28 27 26 25 25 24 23 24 24 24 25 25 27 30 32 31 31 31 30 30 30 29 26 21 17 15 14 14 14 14 13 13 12 12 12 12 12 12 12 12
21 21 22 22 22 22 23 23 24 25 25 25 25 25 25 25 25 26 27 28 29 30 30 31 30 30 30 30 29 28 28 26 25 25 24 23 24 24 24 25 25 27 29 32 31 31 31 30 30 30 30 27 22 17 15 14 14 13 13 13 12 12 12 13 12 12 12 12 12
22 22 22 22 22 23 23 24 25 25 26 25 25 25 25 26 28 29 30 30 31 32 32 32 31 31 31 30 30 29 28 27 25 25 24 23 24 24 25 25 25 27 29 32 31 31 31 30 30 30 29 28 23 17 14 13 13 13 12 12 12 12 12 12 12 12 12 12 12
23 23 22 22 23 23 24 25 25 26 27 26 26 26 27 28 29 30 31 32 32 32 32 32 31 31 30 30 29 28 28 27 25 24 23 23 24 24 25 25 25 27 30 32 31 31 31 30 30 30 29 28 22 17 14 13 12 12 12 12 12 12 12 12 12 12 12 12 12
24 24 24 23 23 24 25 25 26 27 27 26 27 29 30 30 31 32 32 32 33 33 32 31 31 30 30 29 28 28 27 26 25 24 23 23 24 24 25 25 25 27 30 31 31 31 31 30 30 30 29 27 20 16 13 13 12 12 12 12 12 12 12 12 12 12 12 12 11
25 25 26 25 24 25 25 26 26 27 28 30 30 32 33 34 34 34 34 34 35 35 34 33 31 30 30 29 28 27 27 26 25 24 23 24 24 24 24 25 25 28 30 31 31 31 31 30 30 30 28 25 18 14 13 12 12 12 12 12 12 13 13 12 12 12 12 11 11
25 26 27 26 25 25 25 27 28 30 31 32 34 35 36 37 37 37 37 37 37 37 36 34 33 31 30 30 29 27 26 25 25 24 24 24 24 24 24 24 25 27 29 31 31 31 31 30 30 30 27 22 16 13 12 12 12 12 12 12 12 12 12 12 12 12 12 11 12
24 26 27 27 25 26 29 31 32 34 34 35 36 37 38 39 39 38 38 37 38 37 36 34 33 32 31 30 28 27 26 25 25 25 25 24 24 24 24 24 24 25 28 31 31 31 31 30 30 29 26 21 16 13 12 12 12 12 12 12 12 12 11 10 10 10 11 11 15
25 26 27 27 28 31 33 34 35 36 37 38 38 38 38 39 39 38 38 36 37 36 35 33 32 31 29 28 27 26 26 26 26 26 25 24 24 24 24 23 23 25 27 30 31 31 31 30 30 29 27 21 16 14 13 12 12 12 12 12 12 11 10 9 8 9 9 9 19
26 27 28 30 33 34 36 36 37 37 38 38 38 38 38 38 38 37 36 35 34 34 33 31 30 29 28 27 27 27 28 27 26 25 25 23 23 25 25 23 23 24 26 30 31 31 31 30 30 30 27 22 16 14 13 12 12 12 12 11 11 11 11 10 8 8 8 8 15
29 30 32 34 35 36 36 36 37 37 38 38 38 38 37 37 36 35 34 33 32 31 30 29 28 28 27 28 28 28 28 27 26 25 23 22 23 25 26 23 23 24 25 29 30 31 31 30 30 30 28 22 16 13 12 12 12 12 12 11 11 11 12 11 9 8 8 8 9